Flag for U.S.A. Weather past 2 weeks in Cape Coral, Florida, U.S.A.

Now
78 °F

Passing clouds.


Feels Like: 81 °F
Forecast: 79 / 92 °F
Wind: 7 mph from East

Location: Page Field

Current Time: Aug 28, 2014 at 11:52:09 PM

Latest Report: Aug 28, 2014 at 10:53 PM


Visibility: 10 mi

Pressure: 30.01 "Hg

Humidity: 96%

Dew point: 77 °F

Location of Cape CoralLocation

Historic Weather in Cape Coral — Graph

°F

Cape Coral temperature yesterday

Maximum temperature yesterday: 93 °F (at 4:53 PM)
Minimum temperature yesterday: 71 °F (at 3:53 AM)
Average temperature yesterday: 82 °F

Past Weeks' High & Low Weather Summary

 TemperatureHumidityPressure
High97 °F (Aug 24, 2:53 PM)100% (Aug 15, 7:53 PM)30.13 "Hg (Aug 15, 7:53 PM)
Low71 °F (Aug 27, 3:53 AM)38% (Aug 27, 4:53 PM)29.74 "Hg (Aug 25, 4:53 PM)
Average83 °F75%29.98 "Hg
* Reported Aug 13 9:53 PM — Aug 28 9:53 PM, Cape Coral, Weather by CustomWeather, © 2014

Note: Actual official high and low records may vary slightly from our data, if they occured in-between our weather recording intervals... More about our weather records

Advertising

Cape Coral weather history for previous 24 hours

 ConditionsComfort  
Time TempWeatherWind HumidityBarometerVisibility
9:53 PM
Aug 28
77 °FPassing clouds.No wind100%29.99 "Hg10 mi
8:53 PM77 °FThundershowers. Partly cloudy.3 mph96%29.99 "Hg10 mi
7:53 PM77 °FLight rain. Fog.7 mph96%29.96 "Hg5 mi
6:53 PM77 °FThundershowers. Overcast.No wind96%29.95 "Hg10 mi
6:01 PM78 °FThunderstorms. Fog.8 mph93%29.95 "Hg2 mi
5:53 PM77 °FStrong thunderstorms. Fog.5 mph96%29.96 "Hg1 mi
5:04 PM91 °FThunderstorms. Sunny.12 mph61%29.93 "Hg10 mi
4:53 PM89 °FPassing clouds.9 mph65%29.92 "Hg10 mi
3:53 PM91 °FPartly sunny.7 mph57%29.93 "Hg10 mi
2:53 PM90 °FScattered clouds.3 mph61%29.95 "Hg10 mi
1:53 PM92 °FPassing clouds.3 mph52%29.96 "Hg10 mi
12:53 PM88 °FBroken clouds.7 mph65%29.98 "Hg10 mi
11:53 AM83 °FScattered clouds.7 mph77%29.99 "Hg10 mi
10:53 AM81 °FOvercast.8 mph82%29.99 "Hg10 mi
9:53 AM81 °FPartly sunny.12 mph82%29.98 "Hg10 mi
8:53 AM78 °FOvercast.8 mph87%29.98 "Hg10 mi
7:53 AM76 °FPassing clouds.6 mph94%29.98 "Hg10 mi
6:53 AM75 °FClear.6 mph94%29.96 "Hg10 mi
5:53 AM75 °FClear.5 mph94%29.96 "Hg10 mi
4:53 AM76 °FClear.5 mph94%29.95 "Hg10 mi
3:53 AM76 °FClear.7 mph94%29.95 "Hg10 mi
2:53 AM77 °FPassing clouds.7 mph90%29.96 "Hg10 mi
1:53 AM77 °FClear.7 mph90%29.97 "Hg10 mi
12:53 AM79 °FPassing clouds.6 mph84%29.99 "Hg10 mi
11:53 PM
Aug 27
80 °FClear.6 mph79%29.99 "Hg10 mi
Weather by CustomWeather, © 2014

See weather overviewHow to use our weather pages